{"data":{"norad_id":54259,"intl_designator":"2022-157A","name":"EUTELSAT 10B","alt_names":[],"object_type":"PAYLOAD","status":"ACTIVE","operator":null,"country":"EUTE","launch_date":"2022-11-23","launch_site_code":"AFETR","launch_vehicle":null,"mission":null,"orbit_class":"UNKNOWN","rcs_meters":null,"size_class":null,"mass_kg":null,"dimensions":null,"purposes":["comms"],"wikipedia_slug":null,"has_3d_model":false,"image_url":null,"decayed_at":null,"tle_current":{"epoch":"2026-09-19T13:35:48.820128Z","epoch_age_seconds":98698,"freshness":"FRESH","line1":"1 54259U 22157A   26262.56653727  .00000064  00000+0  00000+0 0  9999","line2":"2 54259   0.0571 100.7764 0001662   1.1507 110.4835  1.00271067 13970","mean_motion":1.00271067,"eccentricity":0.0001662,"inclination_deg":0.0571,"raan_deg":100.7764,"arg_perigee_deg":1.1507,"mean_anomaly_deg":110.4835,"bstar":0,"rev_number":1397,"period_min":1436.1071873305,"perigee_km":35779.788431951,"apogee_km":35793.804055761,"semimajor_km":42164.933243856,"source":"CELESTRAK","updated_at":"2026-09-20T09:00:35.308949Z"}}}